Dewpoint
69 68 68 67 56 55 51 50 50 41 44 45 44 49 54 59 55 47 65 67 66 67 69 70 71 71 72 71 71 71 70 72 73 73 73 73 72 72 72 71 72 71 71 71 71 71 72 72 71
68 68 69 64 53 48 51 52 44 42 46 45 55 57 57 59 62 63 64 67 66 67 69 70 72 72 72 71 71 71 71 72 73 73 72 73 72 72 72 72 71 71 71 71 70 70 70 70 71
68 68 61 56 53 49 49 50 44 48 47 53 58 60 60 60 62 64 66 67 67 69 70 71 72 72 72 72 72 72 72 72 73 73 72 72 72 72 71 72 72 71 71 71 71 71 71 71 72
66 64 63 55 52 54 53 49 48 47 52 59 58 58 62 62 62 66 67 68 68 69 69 72 71 71 71 71 72 72 71 72 72 72 72 71 72 72 71 72 71 71 71 70 71 71 71 71 71
68 64 55 53 52 53 53 51 49 46 50 57 58 58 60 65 67 67 68 68 67 69 69 70 71 71 70 70 70 71 72 71 72 72 72 71 72 72 71 71 71 71 71 71 71 71 70 71 72
63 62 53 51 52 52 53 53 49 51 56 57 56 57 61 67 66 67 68 68 68 66 69 70 72 72 72 70 71 70 71 72 72 72 72 71 71 72 72 71 71 71 70 70 71 71 70 70 71
61 58 55 53 51 51 54 56 55 55 55 55 56 55 62 65 66 67 68 68 66 67 71 70 70 71 71 70 71 71 70 71 72 73 72 72 72 71 72 72 70 70 70 70 71 71 71 71 71
61 59 55 56 51 53 56 57 57 55 56 58 56 56 59 64 66 67 66 66 66 69 69 70 70 71 70 69 71 71 71 71 72 72 72 72 71 72 72 72 71 70 70 70 71 71 71 71 71
62 56 54 55 53 55 56 55 57 57 54 56 58 57 60 65 66 65 65 67 66 68 69 69 69 70 70 70 71 71 71 71 71 72 73 73 72 70 68 71 70 70 70 70 70 70 70 70 71
58 55 55 58 59 56 56 56 55 53 55 58 59 62 64 65 64 61 63 64 64 67 68 69 69 69 70 70 71 72 72 71 73 72 72 71 72 71 70 71 70 70 70 70 70 71 71 69 66
58 52 57 57 58 58 56 55 55 54 54 56 57 61 64 63 60 60 63 64 66 67 68 70 70 71 71 72 72 70 70 70 71 72 72 71 70 71 71 71 69 69 70 67 67 67 66 67 68
53 54 56 57 59 58 56 55 54 57 57 56 59 61 61 60 59 60 63 64 67 67 67 70 70 71 72 71 69 70 69 69 68 70 71 70 68 70 69 68 70 70 68 69 69 68 69 67 68
48 49 55 57 59 58 58 56 57 58 57 59 61 61 61 61 62 62 64 64 66 67 68 69 71 71 72 71 70 70 70 68 68 69 70 69 68 68 68 70 68 68 69 68 69 69 67 65 64
47 55 58 60 59 59 58 58 58 59 59 60 60 60 62 62 63 63 63 63 65 66 67 69 70 71 71 70 71 70 71 70 69 69 69 70 68 68 69 69 68 69 69 68 69 69 68 66 64
56 56 59 59 59 59 59 57 57 59 60 60 60 61 62 62 63 62 63 63 65 66 67 68 69 70 70 70 70 70 70 69 68 68 69 69 69 69 69 68 68 69 69 70 68 67 68 65 63
54 55 53 59 59 60 58 51 57 60 59 59 60 60 61 62 62 63 64 64 66 66 68 68 68 67 69 70 70 69 70 70 70 70 67 68 70 71 69 68 68 70 69 68 68 68 67 66 66
48 47 50 56 59 59 58 53 58 60 60 60 59 59 60 61 63 63 63 65 66 67 68 68 69 67 68 69 70 70 71 70 70 71 69 70 70 70 70 69 69 71 69 68 68 68 69 66 64
44 39 45 49 56 57 55 54 58 59 60 58 60 60 59 60 61 63 64 65 66 68 69 69 68 66 66 69 69 69 70 69 70 71 70 71 70 71 71 69 70 69 68 67 69 70 68 66 65
29 25 37 53 56 55 54 54 57 60 60 59 59 58 59 59 61 63 64 65 66 68 68 69 69 67 65 67 66 67 67 68 69 71 71 71 71 71 72 69 70 69 68 70 70 69 68 66 68
23 23 51 55 57 55 54 54 56 58 58 59 60 58 59 59 61 63 64 65 66 67 68 68 68 68 67 66 67 67 68 68 69 71 71 71 71 71 71 70 69 70 69 70 71 71 67 67 69
23 23 48 48 55 55 53 53 56 57 58 59 60 60 60 59 59 62 63 65 66 67 67 68 68 67 67 68 68 69 69 70 68 69 70 70 71 70 71 71 69 71 70 67 71 71 71 67 68
23 22 38 52 47 41 53 43 54 56 56 57 59 60 59 61 61 61 62 64 65 66 67 67 68 67 69 70 67 68 65 65 67 68 69 70 71 71 70 70 71 72 70 70 71 71 71 70 67
24 27 30 43 47 44 49 42 47 55 56 57 58 59 61 61 60 61 62 63 64 66 66 67 68 69 69 70 69 68 67 67 67 69 70 70 72 72 70 71 71 72 70 71 72 71 72 70 67
46 40 44 47 45 33 39 40 44 53 54 56 57 58 60 61 60 60 62 63 64 65 66 66 68 69 69 70 71 70 67 67 68 69 68 70 70 70 72 72 71 72 71 71 72 72 72 71 70
47 38 38 37 38 31 43 43 40 51 54 56 57 57 59 61 60 60 61 63 63 64 65 65 68 68 69 70 70 70 70 70 69 69 68 70 68 70 71 72 71 71 71 71 72 72 71 71 69
38 33 25 25 31 30 47 40 42 54 56 57 58 58 60 60 61 61 60 61 63 63 65 66 67 68 69 69 70 70 70 69 70 70 68 68 68 70 71 72 72 72 71 71 72 71 70 72 70
35 33 32 33 37 34 41 46 52 55 56 56 58 58 59 61 61 62 61 61 62 64 64 65 67 68 69 68 70 71 70 69 69 71 71 69 70 71 71 71 71 71 71 71 72 70 71 71 71
33 32 24 31 30 27 41 43 41 52 54 56 56 57 57 60 62 63 63 63 64 64 65 66 68 68 68 69 70 71 70 69 69 69 71 71 71 71 71 71 71 72 72 72 72 71 71 71 69
27 28 29 29 29 24 30 38 53 53 54 57 56 56 58 59 61 63 63 64 66 66 66 67 68 68 68 69 70 71 70 69 70 69 70 71 72 72 71 71 71 71 72 72 72 72 71 71 70
27 27 29 25 28 34 33 33 53 55 55 57 58 59 59 59 61 62 64 65 65 66 67 68 69 69 69 67 70 70 70 70 71 70 69 70 70 71 72 72 71 71 71 71 71 70 69 70 70
Wind_Speed
6 5 1 1 1 1 4 6 8 21 13 8 16 5 8 7 2 7 9 5 14 15 13 12 11 13 12 11 10 11 11 11 12 11 13 13 13 14 14 15 17 17 17 18 18 17 17 17 17
5 3 0 1 1 5 4 6 19 17 16 23 9 15 6 4 4 12 8 13 15 14 13 12 12 13 12 12 9 9 11 11 11 11 12 12 12 14 13 17 17 17 17 17 17 16 15 16 15
4 0 0 2 2 5 7 8 22 17 21 10 6 8 4 3 11 11 11 16 15 13 12 12 12 12 11 11 10 8 10 10 9 10 12 12 13 14 14 16 17 16 16 15 14 13 13 13 14
3 3 2 2 6 4 4 17 22 26 18 4 13 10 6 6 10 7 17 16 15 14 11 12 12 11 10 9 9 8 8 8 8 8 9 12 14 15 15 16 16 14 13 14 13 12 8 8 8
2 1 0 5 7 5 11 16 18 24 14 9 1 6 11 3 10 19 17 15 15 13 11 11 11 11 11 9 8 7 7 8 8 8 8 11 13 13 16 15 13 12 12 12 12 11 11 11 9
1 1 3 6 13 12 14 11 18 13 10 11 15 15 6 9 20 17 17 15 13 11 9 10 10 10 10 10 7 8 7 7 8 8 8 12 14 13 14 15 12 11 11 11 12 12 9 10 11
2 2 3 6 15 10 7 9 7 10 12 7 16 10 7 15 16 16 16 14 12 10 8 8 9 10 9 10 10 8 8 6 7 9 10 11 12 12 14 14 13 11 11 11 11 13 14 10 9
3 3 4 6 8 5 3 5 7 9 9 11 12 7 12 15 17 17 15 14 12 10 9 8 8 8 9 10 8 9 8 7 8 9 11 11 13 14 14 12 11 10 9 9 10 10 9 7 5
3 6 4 1 5 3 7 7 4 9 16 6 2 15 20 21 20 18 16 13 12 9 8 9 9 10 9 9 10 10 9 9 9 9 11 10 10 11 12 12 11 10 9 8 6 5 4 7 8
2 5 8 11 5 4 7 11 10 10 8 9 18 20 23 22 20 19 17 15 13 11 9 8 7 8 8 9 10 9 9 8 8 8 8 7 9 10 11 11 11 10 8 6 3 3 2 1 3
2 4 9 17 8 7 11 11 4 16 3 10 29 28 23 22 19 17 15 15 13 11 9 8 7 6 7 8 7 6 6 7 7 7 7 7 7 8 7 7 7 6 5 3 2 3 4 5 4
2 4 13 7 13 10 11 10 10 8 3 16 23 27 24 21 20 18 15 14 13 13 10 8 7 6 6 7 7 7 7 7 7 6 5 6 7 7 6 6 5 5 5 5 5 6 6 4 3
5 2 9 8 13 13 9 13 9 6 9 21 21 21 20 18 17 15 13 12 13 13 11 10 8 7 6 6 6 6 7 7 7 5 5 4 6 6 6 6 6 5 5 5 5 5 4 5 5
4 4 7 3 14 12 16 9 7 6 9 20 21 20 19 17 17 15 14 14 14 13 12 12 9 7 8 7 6 6 5 5 5 4 4 3 4 4 5 5 5 5 4 3 4 4 4 4 5
10 11 11 13 15 8 21 10 12 10 11 19 20 18 16 15 14 15 14 14 15 13 13 13 11 8 9 7 6 5 4 4 4 4 5 5 3 2 3 3 3 3 3 4 4 4 4 4 3
5 6 9 7 10 11 9 20 21 9 15 19 19 17 17 15 14 12 13 12 13 13 13 13 11 10 7 7 5 5 4 4 3 4 5 3 1 0 0 2 2 2 3 5 5 5 3 3 3
2 5 5 10 4 12 5 8 22 16 17 21 20 19 16 15 13 13 13 14 14 13 14 13 11 10 8 6 4 4 4 4 3 2 4 4 3 2 1 3 3 1 2 4 5 5 5 4 4
9 6 3 6 11 15 9 5 18 22 20 19 17 16 18 17 19 16 15 14 14 13 13 12 10 10 7 6 3 3 4 4 2 1 4 3 3 2 3 3 3 2 3 4 6 5 5 4 5
8 7 5 5 10 10 6 11 19 24 25 19 20 16 17 18 15 15 15 15 15 14 14 14 13 12 10 6 6 5 6 5 4 2 4 4 4 3 3 3 3 2 3 5 5 3 5 5 6
5 6 5 6 5 3 9 14 17 21 25 23 19 17 14 13 13 15 17 16 17 16 15 14 14 12 13 10 7 4 5 4 4 5 5 5 3 3 2 2 2 1 2 3 5 7 4 4 7
5 5 6 3 7 4 14 10 14 16 12 15 15 11 10 11 17 17 19 19 18 17 17 16 14 13 13 11 8 4 5 3 5 7 7 7 6 5 3 2 1 1 1 2 4 5 6 5 4
10 8 8 11 8 4 2 6 12 19 20 23 20 18 16 7 15 18 19 21 20 18 16 15 14 13 12 11 11 11 12 9 9 9 8 7 7 6 6 5 4 2 1 1 1 3 5 3 4
3 4 11 8 4 3 6 3 6 17 20 28 28 24 16 15 9 17 22 19 18 15 16 15 14 13 12 13 11 11 11 9 6 7 8 8 7 6 6 6 5 3 3 1 1 1 4 6 8
11 12 10 7 2 5 7 10 6 15 26 27 29 28 21 15 6 10 14 14 15 15 15 15 15 15 13 13 12 11 11 11 7 7 10 8 7 7 6 7 7 4 3 4 3 1 2 5 5
4 13 6 4 6 5 2 8 5 13 10 23 30 32 27 15 8 10 15 16 15 16 16 14 14 14 13 12 10 10 7 7 7 8 9 9 8 7 7 6 8 6 4 4 3 2 1 2 3
18 15 12 17 9 10 5 8 3 4 7 11 24 29 25 21 10 7 15 16 15 15 17 16 15 15 14 13 10 7 8 6 7 8 8 9 9 8 8 8 6 5 5 4 3 3 2 2 2
9 13 5 4 2 7 5 4 5 3 5 11 21 25 26 22 13 10 12 13 14 15 17 17 16 15 15 15 12 9 8 7 6 5 6 8 7 6 6 7 7 6 6 5 6 5 4 3 2
9 8 11 5 10 10 4 5 7 7 9 13 21 27 28 24 17 13 11 11 9 10 14 16 17 17 18 15 12 9 8 7 5 5 6 7 7 7 7 9 9 8 7 7 7 6 5 4 3
5 6 2 5 3 15 7 5 3 8 12 13 18 21 24 25 23 14 9 9 8 9 11 14 15 15 17 17 12 9 9 8 7 5 7 8 5 7 7 6 7 9 9 9 9 8 6 6 5
1 1 6 12 9 3 6 8 4 6 11 12 12 13 16 19 17 16 10 7 6 5 7 12 12 13 15 15 11 7 4 5 7 6 5 9 8 6 7 8 8 10 10 10 10 9 8 9 7
Wind_Direction
153 146 127 309 334 101 86 103 110 131 142 152 150 157 126 50 59 113 142 147 143 141 140 143 127 113 107 104 97 88 84 83 86 86 91 89 97 94 96 101 97 97 91 97 94 90 92 91 94
135 169 76 342 341 105 80 110 135 140 141 141 120 127 97 75 74 122 131 149 144 136 134 132 126 118 115 110 104 94 84 79 81 82 87 92 97 100 100 102 98 94 91 90 89 90 90 90 91
104 117 103 45 50 103 114 131 135 127 137 143 113 74 63 75 119 131 135 142 140 134 133 130 126 122 115 111 107 100 94 88 80 83 100 102 93 95 94 100 99 95 91 89 91 91 90 91 91
68 358 81 82 76 61 105 144 135 135 147 67 118 75 81 124 125 139 140 139 137 136 138 129 130 125 123 119 113 106 103 95 92 93 85 94 91 92 94 92 93 90 88 83 81 76 81 94 80
43 48 59 96 72 60 111 141 142 146 153 126 103 99 111 76 125 138 139 141 138 134 135 141 137 135 136 129 122 123 109 110 97 86 88 93 93 92 92 94 90 88 81 69 64 64 72 87 62
102 248 52 70 99 100 92 105 135 133 131 119 105 114 93 126 138 142 139 135 136 134 133 136 131 130 128 126 126 133 117 104 103 92 90 85 84 92 99 97 98 91 81 70 57 53 90 88 79
115 109 63 67 120 107 94 100 110 118 119 98 129 110 118 144 142 142 139 134 133 133 121 122 131 130 127 125 125 131 126 120 108 94 89 84 86 90 87 94 92 91 83 72 58 60 70 74 79
129 95 47 27 150 111 99 95 102 109 92 114 134 140 153 157 147 140 138 135 136 132 132 130 127 128 136 127 119 138 127 133 114 101 96 83 85 90 90 100 91 92 85 74 61 63 67 70 117
190 96 95 257 142 111 139 128 75 114 122 91 108 142 138 146 145 142 142 141 141 135 138 133 130 135 131 125 119 120 117 121 120 113 84 85 84 89 93 80 90 87 80 70 65 71 80 66 93
54 103 136 188 181 146 146 117 122 133 121 89 111 115 137 149 154 155 157 154 156 151 149 138 139 129 131 120 123 111 112 110 100 94 93 90 85 80 80 84 82 84 86 85 62 30 24 4 24
124 134 167 199 210 177 142 138 102 136 150 176 148 143 151 157 160 164 166 161 159 159 157 152 141 133 126 118 114 117 122 120 107 98 105 96 95 84 84 87 91 92 80 60 12 344 332 320 316
156 198 170 172 185 164 151 113 117 58 327 147 146 147 154 164 166 173 173 165 161 163 161 156 151 139 119 124 122 119 120 122 122 112 104 108 107 103 91 82 64 56 45 36 15 5 355 340 306
221 165 185 174 177 156 134 119 120 98 116 139 144 150 159 167 171 176 178 170 164 166 164 166 163 152 144 130 129 126 121 120 123 122 107 110 114 102 93 72 67 60 45 42 23 12 15 33 48
185 158 138 175 171 145 124 95 77 223 143 147 155 162 170 174 176 174 182 176 174 171 171 165 174 164 157 148 139 130 125 125 134 134 126 126 94 84 81 66 61 61 64 39 5 356 11 38 52
137 135 105 121 141 113 97 138 198 167 164 164 168 172 175 179 180 182 180 183 176 177 170 168 173 169 165 156 144 139 139 139 139 135 138 135 99 64 69 46 43 51 39 17 33 24 15 31 43
145 148 155 166 150 144 172 194 209 180 170 175 177 182 184 185 189 187 182 187 173 173 178 169 171 170 169 155 146 142 135 135 146 155 148 156 130 176 142 49 55 45 42 22 28 28 31 28 11
108 164 140 151 169 155 204 142 187 192 184 182 180 186 190 186 194 196 188 187 178 178 178 179 174 174 174 163 149 143 130 136 138 180 169 160 126 117 78 105 97 40 35 35 24 24 19 40 22
166 146 151 133 165 170 186 128 162 183 179 188 176 192 196 196 198 192 192 191 180 181 185 188 181 169 173 169 151 157 152 143 139 165 193 178 150 112 134 114 101 57 79 50 30 26 44 33 359
125 120 134 129 159 160 169 146 161 167 177 193 190 194 207 209 201 192 191 192 184 183 185 194 194 182 175 168 178 190 189 170 159 145 155 145 147 135 153 145 104 65 63 50 25 26 36 40 9
134 128 104 108 144 146 157 158 164 172 186 184 185 200 204 206 201 198 191 192 192 185 191 191 200 198 195 187 186 185 182 189 180 169 175 159 172 163 179 171 130 91 71 51 28 32 22 41 23
183 175 161 124 151 159 156 142 170 190 181 164 159 199 164 222 207 202 199 195 197 188 190 194 196 203 196 181 170 153 160 152 181 187 182 190 188 182 198 219 207 164 356 65 30 34 34 44 59
209 205 156 145 172 162 206 172 203 187 195 184 177 184 191 195 212 208 207 200 198 192 189 196 189 197 202 185 180 187 192 191 208 193 188 188 194 185 194 209 208 210 191 82 40 45 39 24 57
225 178 182 165 132 185 189 213 154 193 206 206 191 191 183 195 202 202 211 208 202 189 187 194 195 195 204 201 195 193 189 198 197 183 186 180 178 188 190 196 206 202 187 171 133 80 58 59 63
142 121 97 95 133 238 191 216 190 185 215 208 206 199 188 186 190 212 203 200 201 193 189 193 196 204 203 210 201 207 198 190 182 184 184 177 179 186 187 191 189 187 159 177 140 79 73 70 65
197 178 168 170 190 229 175 192 259 191 213 211 202 201 195 177 169 197 186 189 200 194 193 193 196 204 201 210 207 207 212 206 212 190 190 180 186 188 175 174 180 189 177 185 163 142 70 64 69
204 222 220 209 200 205 137 220 222 235 248 234 204 194 185 181 166 177 196 192 195 192 195 192 200 207 200 201 214 217 206 211 214 204 199 197 199 184 178 186 191 197 189 197 195 197 196 120 76
189 220 264 140 107 211 180 236 233 202 210 194 192 184 187 179 150 157 172 181 188 181 194 196 196 204 206 200 202 205 200 204 214 214 212 205 202 198 196 192 190 200 207 207 207 218 215 205 179
213 168 203 235 187 218 202 253 233 204 192 186 189 191 189 187 173 167 163 166 173 181 190 192 191 197 202 202 198 201 196 192 209 213 219 214 211 202 203 209 205 197 205 204 210 218 209 214 228
172 203 207 215 240 224 208 233 167 191 189 188 191 192 190 190 196 178 163 177 165 167 178 185 186 189 198 203 198 197 197 184 185 204 216 200 207 212 213 220 218 217 211 214 212 211 219 223 226
255 142 211 221 198 225 260 229 167 187 177 178 182 184 196 196 192 201 197 184 205 190 168 176 187 192 196 187 179 184 189 200 191 208 210 193 205 209 222 217 222 227 220 216 213 218 221 222 225